Regional Weather Roundup
Issued by NWS

Home | Current Version | Previous Version | Text Only | Print | Product List | Glossary Off
Versions: 1 2 3 4 5 6 7 8 9 10 11 12 13 14 15 16 17 18 19 20 21 22 23 24 25 26 27 28 29 30 31 32 33 34 35 36 37 38 39 40 41 42 43 44 45 46 47 48 49 50

000
ASUS43 KFSD 220010
RWRSD

WEATHER ROUNDUP FOR SOUTH DAKOTA
NATIONAL WEATHER SERVICE SIOUX FALLS SD
600 PM CST WED FEB 21 2018

NOTE: "FAIR" INDICATES FEW OR NO CLOUDS BELOW 12,000 FEET WITH NO
SIGNIFICANT WEATHER AND/OR OBSTRUCTIONS TO VISIBILITY.


SDZ001>005-009-010-012>017-220100-
NORTHWEST AND NORTH CENTRAL SOUTH DAKOTA

CITY           SKY/WX    TMP DP  RH WIND       PRES   REMARKS
BUFFALO          N/A      2  -7  66 SE8       30.15F WCI -12
FAITH            N/A      1  -6  72 E5        30.27S WCI  -9
MOBRIDGE       FAIR       9  -2  61 E8        30.36F WCI  -3
$$

SDZ012>016-024>037-041>051-057-063-072>074-220100-
SOUTHWEST AND SOUTH CENTRAL SOUTH DAKOTA

CITY           SKY/WX    TMP DP  RH WIND       PRES   REMARKS
RAPID CTY ARPT FAIR      12   2  64 S8        30.20S WCI   0
PIERRE         FAIR       6   0  76 E8        30.36F WCI  -7
CUSTER         FAIR      16  -1  47 W8        30.07S WCI   5
ELLSWORTH AFB  CLEAR     13   3  63 S6        30.18F WCI   4
PHILIP         FAIR       8   1  73 SE3       30.29F
PINE RIDGE     FAIR      25  12  58 SW14      30.23R WCI  13
SPEARFISH        N/A     16  -2  45 SE5       30.13F WCI   9
WINNER         FAIR      21  10  62 SE12      30.38S WCI   9
$$

SDZ004>011-016>023-039-040-220100-
NORTHEAST SOUTH DAKOTA

CITY           SKY/WX    TMP DP  RH WIND       PRES   REMARKS
ABERDEEN       FAIR       5  -2  72 SE5       30.51F WCI  -4
WATERTOWN      FAIR      10   0  63 SE6       30.49S WCI   0
BROOKINGS      FAIR      14   4  64 S6        30.52S WCI   5
SISSETON         N/A     14   0  53 SW10      30.53S WCI   1
$$

SDZ017-020-022-023-036>040-048>070-220100-
SOUTHEAST SOUTH DAKOTA

CITY           SKY/WX    TMP DP  RH WIND       PRES   REMARKS
SIOUX FALLS    MOCLDY    15   2  56 SE6       30.55R WCI   6
HURON          FAIR      15   4  61 SE9       30.50F WCI   3
CHAMBERLAIN    FAIR      19   9  66 E15       30.43S WCI   5
MITCHELL       FAIR      16   4  59 SE12      30.53S WCI   3
YANKTON        FAIR      16   6  65 E8        30.55R WCI   5
$$

ABBREVIATIONS USED IN REMARKS
   TC - TEMPERATURE IN CELSIUS
  WCI - WIND CHILL INDEX
   HX - HEAT INDEX
  VSB - VISIBILITY





USA.gov is the U.S. government's official web portal to all federal, state and local government web resources and services.